Houston, TX

12:33 PM CST on February 11, 2016 (GMT -0600)
Hobby

Weather History for KHOU - October, 2012

Change the Weather History Date:

Wednesday, October 24, 2012

  Actual Average Record
Temperature  
Mean Temperature 77 °F 69 °F  
Max Temperature 87 °F 80 °F 92 °F (1931)
Min Temperature 66 °F 59 °F 39 °F (1908)
Degree Days  
Heating Degree Days 0 1  
Month to date heating degree days 6 13  
Since 1 July heating degree days 6 14  
Cooling Degree Days 12 6  
Month to date cooling degree days 213 192  
Year to date cooling degree days 3412 3017  
Growing Degree Days 24 (Base 50)    
Moisture  
Dew Point 68 °F    
Average Humidity 75    
Maximum Humidity 100    
Minimum Humidity 50    
Precipitation  
Precipitation 0.00 in 0.19 in 5.54 in (2015)
Month to date precipitation 0.95 4.43  
Year to date precipitation 38.77 40.42  
Sea Level Pressure  
Sea Level Pressure 29.97 in    
Wind  
Wind Speed 5 mph (SE)    
Max Wind Speed 20 mph    
Max Gust Speed 24 mph    
Visibility 10 miles    
Events      
T = Trace of Precipitation, MM = Missing Value Source: NWS Daily Summary

Daily Weather History Graph

Daily Weather History Graph

Search for Another Location

Airport or City:

Trip Planner

Search our weather history database for the weather conditions in past years. The results will help you decide how hot, cold, wet, or windy it might be!

Date:

Astronomy

Oct. 24, 2012 Rise Set
Actual Time 7:29 AM CDT 6:40 PM CDT
Civil Twilight 7:04 AM CDT 7:05 PM CDT
Nautical Twilight 6:36 AM CDT 7:33 PM CDT
Astronomical Twilight 6:09 AM CDT 8:00 PM CDT
Moon 3:39 PM CDT (10/24) 2:46 AM CDT (10/24)
Length of Visible Light 12h 00m
Length of Day
11h 11m
Waxing Gibbous, 76% of the Moon is Illuminated
Oct 24
Waxing Gibbous
Oct 29
Full
Nov 6
Last Quarter
Nov 13
New
Nov 20
First Quarter

Hourly Weather History & Observations

Time (CDT) Temp. Heat Index Dew Point Humidity Pressure Visibility Wind Dir Wind Speed Gust Speed Precip Events Conditions
12:53 AM 69.8 °F - 69.8 °F 100% 29.97 in 10.0 mi SE 4.6 mph - N/A   Clear
1:53 AM 69.1 °F - 69.1 °F 100% 29.98 in 10.0 mi SE 3.5 mph - N/A   Clear
2:53 AM 68.0 °F - 68.0 °F 100% 29.98 in 10.0 mi Calm Calm - N/A   Clear
3:53 AM 66.9 °F - 66.9 °F 100% 29.97 in 10.0 mi Calm Calm - N/A   Clear
4:53 AM 66.0 °F - 66.0 °F 100% 29.97 in 9.0 mi Calm Calm - 0.01 in   Clear
5:53 AM 66.0 °F - 66.0 °F 100% 29.98 in 10.0 mi Calm Calm - N/A   Clear
6:53 AM 64.9 °F - 64.9 °F 100% 29.99 in 10.0 mi Calm Calm - N/A   Partly Cloudy
7:53 AM 66.0 °F - 66.0 °F 100% 30.00 in 10.0 mi ESE 4.6 mph - N/A   Partly Cloudy
8:53 AM 71.1 °F - 71.1 °F 100% 30.02 in 10.0 mi ESE 3.5 mph - N/A   Partly Cloudy
9:53 AM 77.0 °F - 70.0 °F 79% 30.02 in 10.0 mi SSE 8.1 mph - N/A   Partly Cloudy
10:53 AM 79.0 °F - 66.9 °F 66% 30.02 in 10.0 mi South 10.4 mph - N/A   Scattered Clouds
11:53 AM 82.0 °F 84.1 °F 66.0 °F 58% 30.01 in 10.0 mi SSE 10.4 mph 16.1 mph N/A   Scattered Clouds
12:53 PM 84.9 °F 86.6 °F 64.9 °F 51% 29.99 in 10.0 mi South 12.7 mph 16.1 mph N/A   Scattered Clouds
1:53 PM 84.9 °F 87.1 °F 66.0 °F 53% 29.96 in 10.0 mi South 9.2 mph - N/A   Scattered Clouds
2:53 PM 81.0 °F 83.8 °F 68.0 °F 65% 29.94 in 10.0 mi ESE 12.7 mph - N/A   Scattered Clouds
3:53 PM 81.0 °F 83.8 °F 68.0 °F 65% 29.93 in 10.0 mi ESE 10.4 mph - N/A   Scattered Clouds
4:53 PM 81.0 °F 83.8 °F 68.0 °F 65% 29.92 in 10.0 mi ESE 11.5 mph - N/A   Scattered Clouds
5:53 PM 79.0 °F - 66.9 °F 66% 29.93 in 10.0 mi SE 11.5 mph - N/A   Mostly Cloudy
6:53 PM 77.0 °F - 70.0 °F 79% 29.92 in 10.0 mi ESE 8.1 mph - N/A   Mostly Cloudy
7:53 PM 75.9 °F - 72.0 °F 87% 29.94 in 10.0 mi SE 6.9 mph - N/A   Mostly Cloudy
8:53 PM 75.9 °F - 73.0 °F 91% 29.95 in 10.0 mi SE 8.1 mph - N/A   Mostly Cloudy
9:53 PM 75.0 °F - 71.1 °F 87% 29.94 in 10.0 mi SE 5.8 mph - N/A   Mostly Cloudy
10:53 PM 73.9 °F - 71.1 °F 91% 29.94 in 10.0 mi SE 4.6 mph - N/A   Mostly Cloudy
11:53 PM 73.9 °F - 71.1 °F 91% 29.92 in 10.0 mi SE 4.6 mph - N/A   Scattered Clouds